[[{"header":{"parameterUnit":"m.s-1","parameterCategory":1,"la1":30.2991,"la2":30.254,"lo1":-89.0895,"lo2":-89.0444,"dy":0.0017,"dx":0.0017,"nx":28,"ny":28,"refTime":"2023-03-18T21:00:00:Z","depth":0,"parameterNumber":2,"parameterNumberName":"U-component_of_WINDS"},"data":[0,0,0,0,0,0,0,0,0,0,0,0,0,0,0,0,0,0,0,0,0,0,0,0,0,0,0,0,0,0,0,0,0,0,0,0,0,0,0,0,0,0,0,0,0,0,0,0,0,0,0,0,0,0,0,0,0,0,1.5726,1.5726,0,1.5724,1.5723,1.5723,1.5715,1.5715,1.5714,1.5714,1.5711,1.5711,1.5711,0,0,0,0,0,0,0,0,0,0,0,0,0,1.5722,1.5722,1.5726,1.5726,1.5726,1.5724,1.5723,1.5723,1.5715,1.5715,1.5714,1.5714,1.5711,1.5711,1.5711,0,0,0,0,0,0,0,0,0,0,0,0,0,1.5722,1.5722,1.5726,1.5721,1.5721,1.5724,1.5723,1.5723,1.5715,1.5715,1.5714,1.5714,1.5711,1.5711,1.5711,1.5718,0,0,1.5712,1.5712,0,0,0,0,0,0,0,0,1.5722,1.5722,1.5722,1.5721,1.5721,1.5719,1.5721,1.5722,1.5715,1.5717,1.5714,1.5714,1.5714,1.5714,1.5714,1.5718,1.5718,1.5712,1.5712,1.5712,1.5712,0,0,0,0,0,0,0,1.5722,1.5722,1.5725,1.5722,1.5721,1.5719,1.5719,1.5721,1.5717,1.5717,1.5716,1.5716,1.5714,1.5714,1.5714,1.5718,1.5712,1.5712,1.5712,1.5712,1.5728,1.5728,0,0,0,0,0,0,1.5723,1.5722,1.5725,1.5725,1.5721,1.5719,1.5719,1.572,1.5717,1.5716,1.5716,1.5716,1.5714,1.5714,1.5714,1.5722,1.5712,1.5712,1.5712,1.5728,1.5728,1.5728,0,0,0,0,0,0,1.5722,1.5723,1.5725,1.5723,1.5723,1.572,1.5721,1.572,1.572,1.5717,1.5716,1.5717,1.5714,1.5714,1.5717,1.5721,1.5712,1.5712,1.5727,1.5728,1.5728,1.5737,0,0,0,0,0,0,1.5722,1.5723,1.5725,1.5723,1.5723,1.5729,1.5721,1.572,1.5721,1.572,1.5718,1.5717,1.5713,1.5717,1.5718,1.5721,1.5713,1.5727,1.5728,1.5728,1.5737,1.5738,1.5739,0,0,0,0,0,1.5722,1.5728,1.5726,1.5726,1.5727,1.5729,1.5729,1.5725,1.5721,1.5724,1.5722,1.5717,1.5721,1.5718,1.5718,1.5722,1.5727,1.5727,1.5728,1.5736,1.5738,1.5739,0,0,0,0,0,0,1.573,1.5727,1.5725,1.573,1.573,1.5727,1.573,1.5727,1.5727,1.5726,1.5722,1.5721,1.5726,1.5724,1.572,1.5729,1.5723,1.5724,1.5729,1.5731,1.5732,1.5732,1.5713,0,0,0,0,0,1.5732,1.5735,1.5732,1.5737,1.5737,1.5734,1.5735,1.5732,1.5731,1.5731,1.5729,1.5728,1.5729,1.573,1.5731,1.5737,1.5736,1.574,1.5741,1.5743,1.5743,1.5746,1.5748,1.5731,1.5731,1.5731,0,0,1.5737,1.5736,1.5738,1.5739,1.5738,1.574,1.5734,1.5736,1.5738,1.5731,1.5734,1.5733,1.5732,1.5737,1.5739,1.5736,1.5748,1.5743,1.5744,1.5744,1.5747,1.5748,1.575,1.5731,1.5731,1.5731,0,0,1.5747,1.5746,1.575,1.575,1.575,1.5748,1.5749,1.5747,1.5746,1.575,1.5745,1.5747,1.5749,1.5748,1.5748,1.5759,1.5755,1.5759,1.5766,1.5769,1.577,1.5771,1.5775,1.5776,1.576,1.576,1.576,0,1.5752,1.5756,1.5753,1.5756,1.5756,1.5751,1.5755,1.5755,1.5755,1.5755,1.5752,1.5755,1.5754,1.5759,1.5761,1.5762,1.5763,1.5759,1.5771,1.5772,1.5773,1.5776,1.5777,1.5761,1.5761,1.5761,1.5761,0,1.5763,1.5765,1.5769,1.5769,1.577,1.5773,1.5771,1.5772,1.577,1.5768,1.5772,1.5771,1.5771,1.5772,1.577,1.5777,1.5775,1.5771,1.5765,1.5775,1.5778,1.5779,1.5762,1.5761,1.5761,1.5761,0,0,1.5776,1.5775,1.5777,1.5777,1.5776,1.5778,1.5782,1.5783,1.5784,1.5784,1.5787,1.5789,1.5786,1.5786,1.5784,1.5786,1.5795,1.5782,1.5782,1.5784,1.5802,1.5804,1.5806,1.5792,1.5793,1.5793,1.5802,0,1.5785,1.5791,1.5788,1.5794,1.5796,1.5792,1.5795,1.5795,1.5794,1.5796,1.5795,1.5796,1.5792,1.5792,1.5795,1.5793,1.5798,1.5793,1.5794,1.5794,1.5794,1.5807,1.581,1.5818,1.5803,1.5803,1.5804,0,1.5795,1.5797,1.5803,1.5803,1.5804,1.5806,1.5807,1.5809,1.5809,1.5808,1.5809,1.5806,1.5809,1.5804,1.5809,1.5805,1.5806,1.5805,1.5805,1.5805,1.5799,1.5806,1.5821,1.5822,1.5805,1.5805,1.5805,0,1.5804,1.5807,1.5811,1.5812,1.5812,1.5814,1.5814,1.5814,1.5815,1.5816,1.5816,1.5818,1.5818,1.5819,1.5817,1.5813,1.5821,1.5816,1.582,1.582,1.5821,1.5821,1.5835,1.5823,1.5823,1.5823,1.5823,0,1.5813,1.5817,1.5815,1.5818,1.5822,1.582,1.5824,1.5824,1.5824,1.5826,1.5823,1.5825,1.5822,1.5824,1.5822,1.5826,1.5826,1.5825,1.5824,1.5825,1.5825,1.5825,1.5824,1.5823,1.5823,1.5823,1.5823,0,1.5823,1.5822,1.5826,1.5826,1.5826,1.5829,1.5829,1.5831,1.583,1.5833,1.5834,1.5832,1.5834,1.5832,1.5834,1.5833,1.5838,1.5837,1.5838,1.5837,1.5841,1.5841,1.5855,1.5857,1.5844,1.5844,1.5845,0,1.5829,1.5832,1.5832,1.5834,1.5834,1.5836,1.5838,1.5836,1.5837,1.5838,1.584,1.5842,1.5843,1.5847,1.5846,1.5847,1.5846,1.5851,1.5846,1.5846,1.5845,1.5845,1.5845,1.5852,1.5852,1.5852,1.5852,0,1.5839,1.5838,1.584,1.5842,1.5844,1.5846,1.5847,1.5848,1.5846,1.5848,1.585,1.5851,1.5854,1.5856,1.5857,1.5857,1.5854,1.5854,1.5855,1.5855,1.5855,1.5854,1.584,1.5853,1.5853,1.5853,1.5853,1.5853,1.5846,1.5849,1.585,1.5852,1.5853,1.5854,1.5857,1.5856,1.5858,1.586,1.5859,1.5862,1.5862,1.5864,1.5864,1.5866,1.5864,1.5866,1.5866,1.5866,1.5866,1.5856,1.5867,1.5867,1.5867,1.5867,1.5867,0,1.5856,1.5857,1.5859,1.5861,1.5863,1.5861,1.5862,1.5864,1.5867,1.5868,1.5869,1.5872,1.5874,1.5874,1.5875,1.5877,1.5876,1.5878,1.5877,1.5877,1.5868,1.5867,1.5879,1.5879,1.5879,1.5879,1.5879,1.5879,1.5861,1.5865,1.5865,1.587,1.587,1.5873,1.5874,1.5875,1.5876,1.588,1.5881,1.5881,1.5882,1.5884,1.5885,1.5885,1.5886,1.5888,1.5887,1.5879,1.5878,1.5876,1.5875,1.5888,1.5888,1.5895,1.5895,1.5896]},{"header":{"parameterUnit":"m.s-1","parameterCategory":1,"la1":30.2991,"la2":30.254,"lo1":-89.0895,"lo2":-89.0444,"dy":0.0017,"dx":0.0017,"nx":28,"ny":28,"refTime":"2023-03-18T21:00:00:Z","depth":0,"parameterNumber":3,"parameterNumberName":"V-component_of_WINDS"},"data":[0,0,0,0,0,0,0,0,0,0,0,0,0,0,0,0,0,0,0,0,0,0,0,0,0,0,0,0,0,0,0,0,0,0,0,0,0,0,0,0,0,0,0,0,0,0,0,0,0,0,0,0,0,0,0,0,0,0,-7.2072,-7.2074,0,-7.2275,-7.2277,-7.228,-7.2188,-7.2183,-7.2178,-7.2174,-7.2377,-7.2386,-7.2396,0,0,0,0,0,0,0,0,0,0,0,0,0,-7.1602,-7.1611,-7.2072,-7.2074,-7.2077,-7.2275,-7.2277,-7.228,-7.2189,-7.2183,-7.2177,-7.2171,-7.2373,-7.2385,-7.2397,0,0,0,0,0,0,0,0,0,0,0,0,0,-7.1805,-7.1614,-7.2071,-7.2056,-7.2056,-7.2274,-7.2278,-7.2281,-7.219,-7.2183,-7.2175,-7.2168,-7.2369,-7.2384,-7.2399,-7.2643,0,0,-7.2445,-7.2452,0,0,0,0,0,0,0,0,-7.1794,-7.1823,-7.2055,-7.2057,-7.2058,-7.2199,-7.2186,-7.2402,-7.2192,-7.2139,-7.2173,-7.2165,-7.2323,-7.2342,-7.2396,-7.2653,-7.2661,-7.2447,-7.2456,-7.2462,-7.2467,0,0,0,0,0,0,0,-7.178,-7.1813,-7.2152,-7.2059,-7.2061,-7.2037,-7.2058,-7.2227,-7.2271,-7.2143,-7.2137,-7.2163,-7.2322,-7.2382,-7.24,-7.2664,-7.2446,-7.246,-7.2469,-7.2475,-7.3132,-7.314,0,0,0,0,0,0,-7.1767,-7.1802,-7.2146,-7.2158,-7.1905,-7.2052,-7.2075,-7.2161,-7.2269,-7.2278,-7.2169,-7.2158,-7.236,-7.2383,-7.2407,-7.2702,-7.2462,-7.2476,-7.2485,-7.3124,-7.3134,-7.3143,0,0,0,0,0,0,-7.1757,-7.1798,-7.2137,-7.1979,-7.202,-7.2068,-7.2166,-7.2169,-7.2228,-7.2288,-7.2295,-7.2222,-7.2355,-7.2386,-7.2586,-7.2707,-7.2483,-7.2497,-7.3114,-7.3127,-7.3139,-7.3292,0,0,0,0,0,0,-7.1744,-7.1795,-7.1889,-7.1982,-7.2029,-7.2315,-7.2173,-7.2179,-7.2255,-7.2243,-7.234,-7.2348,-7.2351,-7.2564,-7.2601,-7.2724,-7.2509,-7.3104,-7.312,-7.3135,-7.3276,-7.3308,-7.3335,0,0,0,0,0,-7.1727,-7.1923,-7.1895,-7.1937,-7.2148,-7.2322,-7.2349,-7.2349,-7.2265,-7.236,-7.2399,-7.2345,-7.2688,-7.2585,-7.2626,-7.2756,-7.3096,-7.3115,-7.3134,-7.3263,-7.3302,-7.3335,0,0,0,0,0,0,-7.1842,-7.1935,-7.1904,-7.2136,-7.2222,-7.2306,-7.2426,-7.239,-7.2501,-7.2484,-7.2478,-7.2501,-7.2708,-7.2751,-7.2635,-7.2998,-7.2879,-7.2907,-7.2963,-7.3,-7.3029,-7.3016,-7.2521,0,0,0,0,0,-7.1894,-7.2029,-7.2102,-7.2299,-7.2344,-7.2378,-7.2454,-7.2447,-7.2535,-7.257,-7.2623,-7.271,-7.2837,-7.292,-7.304,-7.3281,-7.3301,-7.339,-7.342,-7.3444,-7.3469,-7.3601,-7.3642,-7.3205,-7.3205,-7.3205,0,0,-7.2004,-7.2071,-7.2156,-7.2324,-7.239,-7.2529,-7.2409,-7.2561,-7.2664,-7.2593,-7.2786,-7.2828,-7.2924,-7.3146,-7.3246,-7.3188,-7.3594,-7.3468,-7.3487,-7.3499,-7.3624,-7.3666,-7.3702,-7.3218,-7.3216,-7.3214,0,0,-7.2275,-7.2339,-7.2511,-7.258,-7.2682,-7.2703,-7.2745,-7.2835,-7.2861,-7.3055,-7.3005,-7.3126,-7.3345,-7.3416,-7.3481,-7.378,-7.3735,-7.3818,-7.3974,-7.4103,-7.4137,-7.4168,-7.4276,-7.4315,-7.3843,-7.3843,-7.3843,0,-7.2398,-7.2607,-7.2604,-7.2761,-7.2837,-7.278,-7.2955,-7.3021,-7.3156,-7.3209,-7.3142,-7.3417,-7.3477,-7.3716,-7.3789,-7.3843,-7.389,-7.3808,-7.4133,-7.4163,-7.4191,-7.4295,-7.4335,-7.3853,-7.3851,-7.385,-7.385,0,-7.2754,-7.2899,-7.3026,-7.3161,-7.325,-7.3415,-7.3437,-7.3527,-7.3512,-7.354,-7.3739,-7.3809,-7.3944,-7.3999,-7.3985,-7.4237,-7.4198,-7.4132,-7.4012,-7.4243,-7.434,-7.4379,-7.3866,-7.3863,-7.386,-7.3858,0,0,-7.3103,-7.3236,-7.3282,-7.3344,-7.3452,-7.3564,-7.3726,-7.3859,-7.3938,-7.4032,-7.4168,-7.4355,-7.4296,-7.4369,-7.4362,-7.4475,-7.471,-7.4395,-7.4398,-7.4453,-7.4993,-7.5043,-7.5089,-7.468,-7.4687,-7.4693,-7.4985,0,-7.3384,-7.367,-7.3673,-7.3936,-7.4071,-7.4019,-7.416,-7.4242,-7.4272,-7.439,-7.4422,-7.4556,-7.4466,-7.451,-7.4619,-7.4658,-7.4818,-7.4637,-7.4806,-7.4813,-7.4787,-7.514,-7.5193,-7.5466,-7.5023,-7.5029,-7.5034,0,-7.375,-7.386,-7.4137,-7.4228,-7.4284,-7.4411,-7.4534,-7.4648,-7.4738,-7.4752,-7.4836,-7.4812,-7.4976,-7.485,-7.5076,-7.4953,-7.5022,-7.5052,-7.5062,-7.508,-7.4939,-7.5169,-7.5552,-7.5594,-7.5093,-7.5089,-7.5084,0,-7.398,-7.4197,-7.4391,-7.4444,-7.4554,-7.4645,-7.4695,-7.4778,-7.4859,-7.4965,-7.5017,-7.5141,-7.5209,-7.5304,-7.5314,-7.5222,-7.5543,-7.5417,-7.5559,-7.556,-7.5631,-7.5627,-7.6034,-7.5672,-7.5672,-7.5671,-7.567,0,-7.4295,-7.4467,-7.4496,-7.4616,-7.4807,-7.4808,-7.4997,-7.5038,-7.5113,-7.524,-7.5201,-7.532,-7.5325,-7.5447,-7.5455,-7.5642,-7.5672,-7.5688,-7.5689,-7.5693,-7.5692,-7.574,-7.5722,-7.5682,-7.5679,-7.5677,-7.5675,0,-7.4585,-7.4612,-7.4821,-7.4908,-7.4934,-7.5071,-7.5145,-7.5259,-7.5286,-7.5446,-7.5484,-7.5525,-7.5666,-7.5686,-7.585,-7.5855,-7.6081,-7.606,-7.6052,-7.6049,-7.6191,-7.6179,-7.6645,-7.6707,-7.6303,-7.6307,-7.631,0,-7.4785,-7.4917,-7.5019,-7.5102,-7.5158,-7.5291,-7.5373,-7.5378,-7.5465,-7.558,-7.568,-7.5818,-7.5929,-7.6157,-7.6201,-7.6326,-7.631,-7.6464,-7.6328,-7.6329,-7.6315,-7.6308,-7.6322,-7.6491,-7.6496,-7.6499,-7.6502,0,-7.5138,-7.5145,-7.5267,-7.5394,-7.5494,-7.5593,-7.5687,-7.5756,-7.5773,-7.5873,-7.6018,-7.6104,-7.6274,-7.6411,-7.6536,-7.6585,-7.6548,-7.6545,-7.6585,-7.6592,-7.6582,-7.6592,-7.6126,-7.6534,-7.6531,-7.6529,-7.6527,-7.6526,-7.5391,-7.5507,-7.5598,-7.5734,-7.5806,-7.5894,-7.6007,-7.6048,-7.617,-7.631,-7.6304,-7.6465,-7.6552,-7.6716,-7.6774,-7.6898,-7.6847,-7.6905,-7.692,-7.6934,-7.695,-7.6561,-7.6921,-7.692,-7.6919,-7.6918,-7.6917,0,-7.5744,-7.5801,-7.5926,-7.606,-7.6168,-7.6124,-7.6225,-7.6318,-7.646,-7.6546,-7.6657,-7.6824,-7.6957,-7.7012,-7.7143,-7.7232,-7.7218,-7.7266,-7.7261,-7.7273,-7.6987,-7.694,-7.7275,-7.7275,-7.7275,-7.7275,-7.7275,-7.7275,-7.5941,-7.6135,-7.6153,-7.6381,-7.6435,-7.6594,-7.6656,-7.6738,-7.6806,-7.6996,-7.7107,-7.7143,-7.7216,-7.7352,-7.7472,-7.7484,-7.7535,-7.7592,-7.7597,-7.7329,-7.7293,-7.7258,-7.7215,-7.7602,-7.7603,-7.7873,-7.7875,-7.7877]}]]